Regional Weather Roundup
Issued by NWS

Home | Current Version | Previous Version | Text Only | Print | Product List | Glossary On
Versions: 1 2 3 4 5 6 7 8 9 10 11 12 13 14 15 16 17 18 19 20 21 22 23 24 25 26 27 28 29 30 31 32 33 34 35 36 37 38 39 40 41 42 43 44 45 46 47 48 49 50
000
ASUS44 KOUN 260210
RWROK

WEATHER ROUNDUP FOR OKLAHOMA
NATIONAL WEATHER SERVICE NORMAN OK
900 PM CDT SAT MAR 25 2017

NOTE: "FAIR" INDICATES FEW OR NO CLOUDS BELOW 12,000 FEET WITH NO
      SIGNIFICANT WEATHER AND/OR OBSTRUCTIONS TO VISIBILITY.

OKZ001>007-009>012-014-015-017-260300-
NORTHWEST OKLAHOMA AND THE PANHANDLE

CITY           SKY/WX    TMP DP  RH WIND       PRES   REMARKS
GAGE           PTCLDY    55  37  50 E6        29.88R
GUYMON         CLOUDY    58  29  33 SE6       29.86F
ENID/WOODRING  PTCLDY    46  43  87 NE9       29.92R
$$

OKZ016-021>023-033>039-044-045-260300-
SOUTHWEST OKLAHOMA

CITY           SKY/WX    TMP DP  RH WIND       PRES   REMARKS
LAWTON/REGL    CLEAR     60  43  53 SE6       29.89R
LAWTON/FT SILL CLEAR     60  45  56 E7        29.88R
FREDERICK      CLEAR     62  41  46 S10       29.85R
CLINTON        CLEAR     57  40  52 SE3       29.88S
HOBART         CLEAR     57  41  55 S7        29.88R
ALTUS AFB      CLEAR     56  37  47 SE6       29.87R
$$

OKZ018>020-024>031-260300-
CENTRAL OKLAHOMA

CITY           SKY/WX    TMP DP  RH WIND       PRES   REMARKS
OKLAHOMA CITY  PTCLDY    53  43  68 E7        29.91S
OKC/WILEY POST CLEAR     52  45  77 NE6       29.92R
OKC/TINKER AFB CLEAR     51  42  73 NE7       29.91R
STILLWATER     CLEAR     47  40  76 NE6       29.94R
GUTHRIE        CLEAR     50  44  80 E6        29.93R
$$

OKZ008-013-054>072-260300-
NORTHEAST OKLAHOMA

CITY           SKY/WX    TMP DP  RH WIND       PRES   REMARKS
TULSA          CLOUDY    50  44  80 NW7       29.94R
TULSA/JONES    CLOUDY    52  42  69 N6        29.95R
PONCA CITY     CLOUDY    49  40  71 N7        29.94S
BARTLESVILLE   CLOUDY    49  41  74 W3        29.96R
MUSKOGEE       CLOUDY    52  48  86 CALM      29.95S
$$

OKZ032-040>043-046>053-073>077-260300-
SOUTH CENTRAL/SOUTHEAST OKLAHOMA

CITY           SKY/WX    TMP DP  RH WIND       PRES   REMARKS
ARDMORE/DWNTWN CLEAR     55  43  62 CALM      29.91S
MCALESTER      PTCLDY    50  44  80 CALM      29.95R
$$




USA.gov is the U.S. government's official web portal to all federal, state and local government web resources and services.